#timestamp,LO_Frequency,Hit,StdDev 
1579190415.8,286047002.4,N
1579190435.7,286047001.1,N
1579190455.5,286047000.7,N
1579190475.3,286047002.5,N
1579190495.2,286047003.7,Y
1579190515.0,286047007.8,P
1579190515.9,286047007.8,N
1579190535.8,286047006.3,N
1579190555.6,286047008.1,N
1579190575.4,286047009.3,Y
1579190595.3,286047009.5,P
1579190615.1,286047008.0,P
1579190635.9,286047008.8,P
1579190655.7,286047006.3,Y
1579190675.5,286046998.8,P
1579190695.4,286046997.0,N
1579190715.2,286046995.1,N
1579190735.0,286046996.5,N
1579190736.0,286046996.5,N
1579190755.8,286046997.3,N
1579190775.6,286046997.0,N
1579190795.5,286046999.1,N
1579190815.3,286046998.9,N
1579190835.1,286046998.6,N
1579190855.9,286046998.6,N
1579190875.7,286047000.8,N
1579190895.5,286047000.7,N
1579190915.4,286047000.4,N
1579190935.2,286047001.2,N
1579190955.1,286047001.1,N
1579190956.0,286047001.1,N
1579190975.8,286046998.3,N
1579190995.6,286046998.5,N
1579191015.5,286047000.3,N
1579191035.3,286047000.2,N
1579191055.2,286047000.9,N
1579191075.9,286046998.6,N
1579191095.7,286047000.8,N
1579191115.6,286046998.1,N
1579191135.4,286046999.9,N
1579191155.2,286047002.1,N
1579191175.1,286047001.9,N
1579191176.0,286047001.9,N
1579191195.8,286047003.5,N
1579191215.7,286047001.4,N
1579191235.5,286047001.6,N
1579191255.3,286047002.3,N
1579191275.2,286047000.1,N
1579191295.9,286047001.2,N
1579191315.7,286047000.4,N
1579191335.6,286047000.7,N
1579191355.4,286046999.9,N
1579191375.2,286047000.2,N
1579191395.1,286047000.0,N
1579191396.0,286047000.0,N
1579191415.8,286047000.3,N
1579191435.7,286046999.7,N
1579191455.5,286047002.7,N
1579191475.3,286047000.6,N
1579191495.2,286047002.2,N
1579191515.0,286047000.4,N
1579191515.9,286047000.4,N
1579191535.8,286047000.8,N
1579191555.6,286047000.2,N
1579191575.4,286047000.5,N
1579191595.3,286047002.1,N
1579191615.1,286047001.0,N
1579191635.8,286046999.9,N
1579191655.7,286047000.0,N
1579191675.5,286047002.8,N
1579191695.4,286047002.8,N
1579191715.2,286047002.7,N
1579191735.0,286047000.4,N
1579191735.9,286047000.4,N
1579191755.8,286047000.1,N
1579191775.6,286047000.0,N
1579191795.4,286047000.8,N
1579191815.3,286047001.2,N
1579191835.1,286046998.5,N
1579191855.9,286046999.0,N
1579191875.7,286047000.4,N
1579191895.5,286047000.8,N
1579191915.4,286046999.9,N
1579191935.2,286047000.0,N
1579191955.0,286047000.1,N
1579191955.9,286047000.1,N
1579191975.8,286047000.1,N
1579191995.6,286047001.0,N
1579192015.5,286047000.9,N
1579192035.3,286047000.1,N
1579192055.1,286047002.7,N
1579192075.9,286047002.5,N
1579192095.7,286046999.8,N
1579192115.5,286047000.2,N
1579192135.4,286047002.8,N
1579192155.2,286047000.3,N
1579192175.1,286047002.5,N
1579192176.0,286047002.5,N
1579192195.8,286047002.3,N
1579192215.6,286047002.8,N
1579192235.5,286047001.4,N
1579192255.3,286047003.5,N
1579192275.1,286047003.2,N
1579192295.9,286047003.0,N
1579192315.7,286047005.4,Y
1579192335.6,286047003.8,P
1579192355.4,286047001.9,N
1579192375.2,286047001.8,N
1579192395.1,286047003.9,Y
1579192396.0,286047003.9,P
1579192415.8,286047000.3,N
1579192435.6,286047000.2,N
1579192455.5,286047002.1,N
1579192475.3,286047002.5,N
1579192495.2,286047002.0,N
1579192515.9,286047002.3,N
1579192535.7,286047000.0,N
1579192555.6,286046999.7,N
1579192575.4,286047001.5,N
1579192595.3,286047001.5,N
1579192615.1,286047003.5,N
1579192616.0,286047003.5,N
1579192635.8,286047004.2,Y
1579192655.7,286047002.1,P
1579192675.5,286047001.6,P
1579192695.3,286046999.7,N
1579192715.2,286047001.9,N
1579192735.0,286047002.4,N
1579192735.9,286047002.4,N
1579192755.8,286047003.8,Y
1579192775.6,286047002.5,P
1579192795.4,286047001.7,P
1579192815.3,286047002.2,P
1579192835.1,286047002.4,Y
1579192855.9,286047000.6,P
1579192875.7,286047002.5,P
1579192895.5,286047000.8,N
1579192915.4,286046998.9,N
1579192935.2,286046998.1,N
1579192955.0,286047000.9,N
1579192955.9,286047000.9,N
1579192975.8,286047002.1,N
1579192995.6,286047001.8,N
1579193015.5,286047000.4,N
1579193035.3,286047000.4,N
1579193055.1,286047000.4,N
1579193075.9,286047000.0,N
1579193095.7,286047002.7,N
1579193115.5,286047000.6,N
1579193135.4,286046999.8,N
1579193155.2,286047002.3,N
1579193175.0,286047000.5,N
1579193176.0,286047000.5,N
1579193195.8,286047002.7,N
1579193215.6,286047001.0,N
1579193235.5,286046998.1,N
1579193255.3,286047002.3,N
1579193275.1,286047002.0,N
1579193295.9,286047004.3,Y
1579193315.7,286047003.4,P
1579193335.6,286047002.9,N
1579193355.4,286047004.9,P
1579193375.2,286047005.5,Y
1579193395.1,286047001.6,P
1579193396.0,286047001.6,N
1579193415.8,286047002.4,P
1579193435.7,286047000.3,N
1579193455.5,286046999.7,N
1579193475.3,286046998.9,N
1579193495.2,286047000.3,N
1579193515.0,286047000.9,N
1579193515.9,286047000.9,N
1579193535.7,286047001.0,N
1579193555.6,286046998.1,N
1579193575.4,286047000.8,N
1579193595.3,286046998.2,N
1579193615.1,286047001.2,N
1579193635.8,286046998.4,N
1579193655.7,286047001.0,N
1579193675.5,286047001.6,N
1579193695.3,286047003.8,N
1579193715.2,286047001.5,N
1579193735.0,286047001.5,N
1579193735.9,286047001.5,N
1579193755.8,286047002.1,N
1579193775.6,286047002.7,N
1579193795.4,286047002.6,N
1579193815.3,286047002.6,N
1579193835.1,286047000.2,N
1579193855.9,286047000.8,N
1579193875.7,286046999.8,N
1579193895.5,286046999.0,N
1579193915.4,286046999.3,N
1579193965.2,286047000.5,E
1579193975.2,286047002.0,N
1579193995.9,286047000.0,P
